Location: Wyoming Skies Observatory
(43.6910°N, 108.3105°W)
Time: 23:01:03
(UTC-06:00)

Daily predictions for brighter satellites

Satellite Brightness Start Highest point End
(mag) Time Altitude Azimuth Time Altitude Azimuth Time Altitude Azimuth
Cosmos 1758 4.4 19:23:13 10° SE 19:26:35 25° E 19:29:58 10° NE
Cosmos 1437 3.2 19:25:13 10° NNW 19:28:29 67° W 19:31:43 10° S
Cosmos 1484 Rocket 2.9 19:24:53 10° S 19:28:43 82° W 19:32:40 10° NNW
Cosmos 1452 Rocket 3.8 19:25:00 10° N 19:30:07 49° ENE 19:35:12 10° SE
NOSS 3-2 (A) 3.5 19:27:37 10° SSW 19:33:40 74° ESE 19:40:17 10° NE
TELKOM 3 4.2 19:32:22 10° NW 19:35:23 36° NNE 19:37:25 11° E
DMSP B5D1-3 4.5 19:31:29 10° NNE 19:36:37 80° ESE 19:41:43 10° S
ATLAS 5 CENTAUR R/B 2.0 19:32:46 10° SSW 19:37:22 51° ESE 19:42:22 10° NE
Timation 1 Rocket 4.4 19:31:29 10° NNW 19:37:30 88° ENE 19:43:28 10° SSE
Cosmos 2237 Rocket 3.5 19:32:41 10° SW 19:38:07 45° WNW 19:43:34 10° NNE
COSMO-SKYMED 1 2.9 19:34:53 10° N 19:39:14 72° WNW 19:43:33 10° SSW
Nadezhda 4 Rocket 4.5 19:37:45 10° N 19:43:34 38° ENE 19:49:17 10° SE
Cosmos 1072 Rocket 4.4 19:41:47 10° S 19:47:51 78° E 19:53:59 10° N
Meteor 1-21 Rocket 4.4 19:43:44 10° N 19:49:09 49° ENE 19:54:29 10° SSE
Cosmos 1766 3.4 19:45:14 10° S 19:49:11 81° W 19:53:13 10° N
ASTEX 1 4.4 19:46:24 10° NNE 19:50:26 25° E 19:54:26 10° SE
Cosmos 1420 Rocket 4.4 19:46:07 10° N 19:51:10 43° ENE 19:56:13 10° SE
Helios 1B rocket 2.8 19:49:58 10° NNE 19:53:53 42° E 19:57:47 10° S
Cosmos 1544 3.8 19:51:05 10° SSE 19:54:26 32° E 19:57:49 10° NNE
Cosmos 1766 Rocket 3.5 19:53:46 10° N 19:58:10 80° E 20:02:30 10° S
SL-16 R/B 2.7 19:53:18 10° SW 19:58:57 67° WNW 20:04:39 10° NNE
Cosmos 1378 4.2 19:57:04 10° NNW 20:00:41 48° W 20:04:17 10° S
CZ-2D R/B 4.2 20:00:07 16° ESE 20:02:22 28° ENE 20:05:44 10° N
METEOR-M 4.1 19:57:28 10° SSE 20:02:49 82° ENE 20:08:12 10° NNW
Cosmos 1076 Rocket 3.7 19:59:07 10° NNW 20:03:27 74° W 20:07:47 10° S
OAO 3 Rocket 4.4 20:00:45 10° WSW 20:04:50 29° S 20:07:53 15° SE
CENTAUR R/B 3.3 20:00:17 10° SSE 20:05:16 28° ESE 20:10:43 10° NE
Spot 1 4.2 20:01:44 10° SSE 20:06:27 89° W 20:10:55 10° NNW
Spot 2 Rocket 3.4 20:03:43 10° SSE 20:08:45 83° ENE 20:13:49 10° NNW
Meteor 1-28 Rocket 3.7 20:07:52 10° N 20:11:34 60° WNW 20:15:13 10° SSW
Cosmos 1048 Rocket 4.3 20:06:42 10° S 20:11:39 42° ESE 20:16:35 10° NE
Cosmos-2242 2.9 20:07:47 10° S 20:12:08 73° E 20:16:32 10° NNE
Cosmos 1269 Rocket 4.2 20:07:16 10° S 20:12:20 50° ESE 20:17:26 10° NNE
NOSS 3-2 (C) 3.6 20:06:35 10° SW 20:12:42 80° NW 20:19:27 10° NE
ATLAS CENTAUR R/B 4.4 20:11:58 10° W 20:13:30 12° WSW 20:15:01 10° SW
H-2A R/B 3.3 20:14:25 23° SE 20:16:20 39° ENE 20:19:57 10° N
FENGYUN 3A 3.7 20:11:28 10° SSE 20:16:42 56° ENE 20:21:59 10° N
ISS -2.3 20:14:04 10° SSW 20:16:49 27° SE 20:16:49 27° SE
Cosmos 1805 3.3 20:13:56 10° S 20:17:51 84° W 20:21:49 10° N
Cosmos 2151 4.0 20:15:40 10° NNE 20:19:10 25° ENE 20:19:18 25° ENE
Cosmos 1953 2.4 20:15:39 10° S 20:19:38 79° W 20:23:38 10° N
Envisat 4.4 20:19:33 19° ENE 20:19:58 19° ENE 20:23:26 10° NNE
HJ-1C 4.0 20:19:19 10° S 20:22:38 59° W 20:25:59 10° NNW
Cosmos 2034 Rocket 4.1 20:16:29 10° S 20:22:45 84° W 20:29:09 10° N
Gbstr 26 Del rocket 4.1 20:20:39 10° SSW 20:24:36 31° SE 20:25:35 28° ESE
ALOS 2.2 20:21:02 10° SSE 20:25:40 68° ENE 20:30:20 10° N
CZ-4C R/B 4.3 20:23:09 10° W 20:27:48 26° NNW 20:32:58 10° NNE
Cosmos 1500 Rocket 3.5 20:26:52 10° N 20:31:17 63° E 20:34:12 21° SSE
Cosmos 1842 Rocket 3.5 20:27:57 10° S 20:32:11 57° E 20:36:28 10° NNE
GPS 2-04 Rocket1 4.3 20:30:37 10° SSW 20:32:46 18° S 20:32:46 18° S
ATLAS CENTAUR R/B 4.1 20:29:07 10° SW 20:34:49 78° NW 20:54:22 10° NE
Cosmos 158 Rocket 4.2 20:31:48 10° S 20:36:20 40° ESE 20:40:53 10° NE
Cosmos 1943 Rocket 3.2 20:33:58 10° N 20:38:47 28° NE 20:39:39 27° ENE
Cosmos 2369 Rocket 2.3 20:33:37 10° NNW 20:39:13 58° ENE 20:41:35 33° SE
Cosmos 1943 3.3 20:35:50 10° S 20:41:11 47° ESE 20:46:35 10° NE
Cosmos 1470 2.6 20:37:32 10° S 20:41:23 71° E 20:45:16 10° NNE
USA 215 3.2 20:37:34 10° NE 20:44:10 82° SE 20:50:42 10° SW
Cosmos 1733 3.1 20:43:41 52° SE 20:44:19 62° E 20:48:09 10° NNE
Cosmos 1603 4.0 20:40:43 10° SSW 20:46:26 72° WNW 20:52:13 10° NNE
Cosmos 2263 4.5 20:40:50 10° NNW 20:46:27 49° ENE 20:47:58 39° ESE
Meteor 1-29 3.9 20:43:33 10° N 20:46:58 49° WNW 20:50:20 10° SSW
CZ-4B DEB 3.3 20:47:42 36° SSW 20:48:47 59° W 20:52:01 10° NNW
SL-8 R/B 3.6 20:44:30 10° SW 20:49:15 69° SSE 20:50:18 51° E
SeaSat 1 3.8 20:47:50 10° NE 20:55:12 24° S 20:57:16 10° S
Cosmos 1627 Rocket 4.5 20:47:08 10° N 20:53:16 60° ENE 20:55:58 34° SE
Cosmos 1674 3.1 20:50:44 10° NNW 20:54:35 63° W 20:56:23 29° SSW
ERS-1 Rocket 3.4 20:55:23 41° ENE 20:55:23 41° ENE 20:59:59 10° N
Resurs 01 Rocket 3.5 20:53:42 10° SSW 20:57:38 31° W 21:01:36 10° NW
Cosmos 1110 Rocket 4.1 20:57:00 10° NNW 21:02:13 56° ENE 21:02:37 54° E
Abrixas 4.4 20:59:51 10° WSW 21:01:22 27° WSW 21:01:22 27° WSW
BREEZE-M DEB (TANK) 4.4 21:01:27 10° W 21:13:03 61° NNW 21:14:54 37° NE
SJ-11-01 4.3 21:16:00 65° NNE 21:16:00 65° NNE 21:20:11 10° N
Meteor 1-16 Rocket 3.9 21:18:51 77° SE 21:19:02 79° E 21:24:23 10° NNE
Meteor 1-11 4.1 21:15:47 10° N 21:21:38 84° ENE 21:22:26 67° SSE
ATLAS 5 CENTAUR R/B 3.8 21:18:05 10° W 21:22:20 28° NW 21:26:57 10° NNE
GP-B 3.5 21:18:14 10° N 21:22:38 61° W 21:23:17 54° SW
Cosmos 2279 Rocket 3.8 21:30:58 76° ESE 21:31:08 76° E 21:37:21 10° N
Cosmos 1331 Rocket 4.1 21:29:59 10° NNW 21:34:49 74° NNW 21:34:49 74° NNW
Cosmos 839 Rocket 4.5 21:31:47 10° NW 21:39:16 63° WSW 21:40:52 49° SSW
Cosmos 1655 Rocket 4.0 21:33:36 10° N 21:39:49 76° W 21:40:56 60° SSW
H-2A R/B 4.1 21:43:12 21° N 21:43:12 21° N 21:44:49 10° N
SL-24 R/B - RUBIN 2 4.3 21:35:23 10° NW 21:42:07 88° SW 21:42:14 86° S
Cosmos 2026 Rocket 4.4 21:44:20 10° NNW 21:50:17 57° W 21:51:48 45° SW
Cosmos 1428 Rocket 4.5 21:47:21 10° N 21:53:25 80° WNW 21:53:25 80° WNW
CENTAUR R/B 3.0 21:49:17 10° SW 21:55:22 60° NW 22:02:17 10° NNE
Envisat 3.9 21:59:46 46° NW 21:59:46 46° NW 22:03:33 10° NNW
H-2A R/B 4.4 22:12:41 14° N 22:12:41 14° N 22:13:33 10° N
Cosmos 2369 Rocket 4.1 22:18:35 10° NW 22:22:46 22° W 22:23:24 21° WSW
Cosmos 1943 Rocket 3.4 22:17:23 10° NW 22:21:10 38° WNW 22:21:10 38° WNW
USA 215 4.3 22:24:24 30° NNE 22:26:50 41° NNW 22:32:50 10° W
